AHS9923 LEMD-LEBL

Flight info

Callsign AHS9923
Flight time 0h 56m
Altitude 30000
Route PINAR N870 PONEN T600 CASPE
Aircraft A339/H-SADE1E2E3GHIM1P2RWXY/LB2D1

Departure

Time 2026-05-08 08:10
Airport Adolfo Suárez Madrid–Barajas Airport (LEMD)

Arrival

Time 2026-05-08 09:06
Airport Josep Tarradellas Barcelona-El Prat Airport (LEBL)
Time Latitude Longitude Altitude Speed Heading
2026-05-08 07:57 40.46662 -3.56848 1976 ft 0 kts 270°
2026-05-08 08:00 40.46662 -3.56831 1976 ft 3 kts 269°
2026-05-08 08:00 40.46662 -3.56807 1980 ft 3 kts 266°
2026-05-08 08:00 40.46663 -3.56783 1977 ft 3 kts 267°
2026-05-08 08:01 40.46664 -3.56760 1978 ft 2 kts 267°
2026-05-08 08:01 40.46665 -3.56737 1979 ft 1 kts 271°
2026-05-08 08:01 40.46658 -3.56718 1979 ft 1 kts 311°
2026-05-08 08:01 40.46646 -3.56704 1980 ft 1 kts 344°
2026-05-08 08:02 40.46631 -3.56705 1978 ft 0 kts
2026-05-08 08:02 40.46634 -3.56705 1978 ft 0 kts
2026-05-08 08:03 40.46653 -3.56704 1979 ft 5 kts
2026-05-08 08:03 40.46712 -3.56701 1980 ft 10 kts
2026-05-08 08:03 40.46780 -3.56678 1981 ft 9 kts 39°
2026-05-08 08:03 40.46804 -3.56603 1980 ft 9 kts 62°
2026-05-08 08:04 40.46860 -3.56559 1982 ft 13 kts 15°
2026-05-08 08:04 40.46972 -3.56551 1982 ft 17 kts 360°
2026-05-08 08:04 40.47084 -3.56582 1983 ft 17 kts 338°
2026-05-08 08:04 40.47194 -3.56672 1989 ft 20 kts 323°
2026-05-08 08:05 40.47309 -3.56790 1992 ft 22 kts 321°
2026-05-08 08:05 40.47433 -3.56917 1993 ft 24 kts 322°
2026-05-08 08:05 40.47569 -3.57057 1997 ft 26 kts 322°
2026-05-08 08:05 40.47711 -3.57204 2001 ft 27 kts 322°
2026-05-08 08:06 40.47866 -3.57360 2003 ft 28 kts 323°
2026-05-08 08:06 40.48032 -3.57525 2002 ft 33 kts 323°
2026-05-08 08:06 40.48219 -3.57718 1997 ft 36 kts 321°
2026-05-08 08:06 40.48423 -3.57909 1995 ft 34 kts 329°
2026-05-08 08:07 40.48587 -3.58032 2002 ft 25 kts 340°
2026-05-08 08:07 40.48766 -3.58056 2003 ft 26 kts 358°
2026-05-08 08:07 40.48859 -3.57931 2002 ft 22 kts 90°
2026-05-08 08:07 40.48860 -3.57704 1995 ft 24 kts 88°
2026-05-08 08:08 40.48954 -3.57616 1993 ft 18 kts 359°
2026-05-08 08:08 40.49088 -3.57620 1992 ft 21 kts 358°
2026-05-08 08:08 40.49206 -3.57531 1992 ft 19 kts 62°
2026-05-08 08:08 40.49279 -3.57452 1987 ft 10 kts 11°
2026-05-08 08:09 40.49328 -3.57452 1986 ft 0 kts 359°
2026-05-08 08:09 40.49484 -3.57455 1987 ft 64 kts 359°
2026-05-08 08:09 40.50225 -3.57459 1991 ft 146 kts
2026-05-08 08:09 40.51440 -3.57481 2259 ft 192 kts 359°
2026-05-08 08:10 40.52743 -3.57518 3550 ft 184 kts
2026-05-08 08:10 40.54071 -3.57500 4300 ft 201 kts
2026-05-08 08:10 40.55582 -3.57515 4617 ft 237 kts 359°
2026-05-08 08:10 40.57099 -3.57566 5158 ft 259 kts 358°
2026-05-08 08:11 40.58968 -3.57587 5733 ft 283 kts 359°
2026-05-08 08:11 40.60955 -3.57444 6815 ft 283 kts
2026-05-08 08:11 40.62841 -3.56706 7790 ft 290 kts 22°
2026-05-08 08:11 40.64749 -3.55684 8733 ft 296 kts 21°
2026-05-08 08:12 40.66731 -3.54923 9700 ft 302 kts 13°
2026-05-08 08:12 40.68816 -3.54326 10570 ft 306 kts 16°
2026-05-08 08:12 40.70711 -3.53053 11172 ft 316 kts 45°
2026-05-08 08:12 40.72004 -3.50687 11722 ft 326 kts 64°
2026-05-08 08:13 40.73164 -3.47995 12155 ft 348 kts 60°
2026-05-08 08:13 40.74653 -3.45325 12579 ft 370 kts 53°
2026-05-08 08:13 40.76249 -3.42584 13049 ft 387 kts 57°
2026-05-08 08:13 40.77689 -3.39575 14134 ft 386 kts 61°
2026-05-08 08:14 40.79116 -3.36570 14821 ft 395 kts 58°
2026-05-08 08:14 40.80759 -3.33599 15605 ft 402 kts 55°
2026-05-08 08:14 40.82405 -3.30624 16379 ft 407 kts 58°
2026-05-08 08:14 40.83969 -3.27423 17145 ft 413 kts 60°
2026-05-08 08:15 40.85394 -3.24148 17876 ft 417 kts 68°
2026-05-08 08:15 40.86259 -3.20480 18626 ft 417 kts 79°
2026-05-08 08:15 40.86930 -3.16743 19249 ft 424 kts 80°
2026-05-08 08:15 40.87680 -3.12969 19916 ft 430 kts 78°
2026-05-08 08:16 40.88220 -3.10427 20369 ft 433 kts 78°
2026-05-08 08:16 40.89243 -3.05226 21234 ft 440 kts 81°
2026-05-08 08:16 40.89969 -3.01297 21836 ft 446 kts 80°
2026-05-08 08:16 40.90760 -2.97321 22431 ft 452 kts 79°
2026-05-08 08:17 40.91316 -2.94631 22850 ft 455 kts 79°
2026-05-08 08:17 40.92379 -2.89184 23639 ft 461 kts 81°
2026-05-08 08:17 40.92892 -2.86419 23946 ft 466 kts 81°
2026-05-08 08:17 40.93700 -2.82203 23994 ft 471 kts 80°
2026-05-08 08:18 40.94541 -2.78049 23988 ft 466 kts 79°
2026-05-08 08:18 40.95357 -2.73913 23988 ft 467 kts 80°
2026-05-08 08:18 40.96128 -2.69768 23982 ft 465 kts 81°
2026-05-08 08:18 40.96922 -2.65589 23985 ft 469 kts 80°
2026-05-08 08:19 40.97750 -2.61418 24734 ft 468 kts 79°
2026-05-08 08:19 40.98567 -2.57235 25714 ft 467 kts 80°
2026-05-08 08:19 40.99336 -2.53075 26297 ft 473 kts 81°
2026-05-08 08:19 41.00140 -2.48790 27025 ft 477 kts 80°
2026-05-08 08:20 41.00971 -2.44548 27747 ft 480 kts 79°
2026-05-08 08:20 41.01793 -2.40271 28390 ft 484 kts 80°
2026-05-08 08:20 41.02595 -2.35937 29072 ft 487 kts 80°
2026-05-08 08:20 41.03418 -2.31557 29729 ft 491 kts 79°
2026-05-08 08:21 41.04266 -2.27180 30030 ft 501 kts 79°
2026-05-08 08:21 41.05947 -2.18244 29984 ft 498 kts 80°
2026-05-08 08:22 41.07626 -2.09327 29995 ft 498 kts 79°
2026-05-08 08:22 41.09291 -2.00384 29994 ft 499 kts 80°
2026-05-08 08:23 41.10953 -1.91448 29992 ft 500 kts 80°
2026-05-08 08:23 41.12606 -1.82494 30003 ft 501 kts 80°
2026-05-08 08:24 41.14266 -1.73483 29992 ft 503 kts 80°
2026-05-08 08:24 41.15917 -1.64450 30001 ft 503 kts 80°
2026-05-08 08:25 41.17563 -1.55437 29998 ft 504 kts 80°
2026-05-08 08:25 41.19202 -1.46376 29994 ft 505 kts 80°
2026-05-08 08:26 41.20841 -1.37322 29989 ft 506 kts 80°
2026-05-08 08:26 41.22474 -1.28226 29991 ft 506 kts 80°
2026-05-08 08:27 41.24099 -1.19145 29979 ft 507 kts 80°
2026-05-08 08:27 41.25721 -1.10034 29973 ft 507 kts 80°
2026-05-08 08:28 41.27343 -1.00886 29987 ft 508 kts 80°
2026-05-08 08:28 41.28952 -0.91749 29987 ft 509 kts 80°
2026-05-08 08:29 41.30559 -0.82591 29990 ft 510 kts 80°
2026-05-08 08:29 41.32159 -0.73417 29996 ft 510 kts 80°
2026-05-08 08:30 41.33766 -0.64169 30000 ft 511 kts 80°
2026-05-08 08:30 41.34915 -0.50264 30000 ft 501 kts 102°
2026-05-08 08:31 41.33853 -0.41086 30006 ft 503 kts 101°
2026-05-08 08:31 41.32841 -0.31892 30005 ft 503 kts 103°
2026-05-08 08:32 41.31771 -0.22707 30005 ft 504 kts 102°
2026-05-08 08:32 41.30744 -0.13497 30008 ft 505 kts 103°
2026-05-08 08:33 41.29654 -0.04230 30015 ft 506 kts 102°
2026-05-08 08:33 41.28625 0.04867 29761 ft 488 kts 103°
2026-05-08 08:34 41.27532 0.13899 28782 ft 509 kts 102°
2026-05-08 08:34 41.27139 0.18464 28167 ft 503 kts 95°
2026-05-08 08:34 41.27574 0.23137 27981 ft 502 kts 79°
2026-05-08 08:35 41.28504 0.27616 28017 ft 516 kts 76°
2026-05-08 08:35 41.29523 0.32214 28003 ft 512 kts 75°
2026-05-08 08:35 41.30525 0.36679 28020 ft 490 kts 75°
2026-05-08 08:35 41.31463 0.40940 28034 ft 471 kts 76°
2026-05-08 08:36 41.32339 0.45012 28034 ft 454 kts 76°
2026-05-08 08:36 41.33208 0.49037 27528 ft 450 kts 76°
2026-05-08 08:36 41.34084 0.53043 26957 ft 448 kts 76°
2026-05-08 08:36 41.34938 0.56955 26560 ft 442 kts 76°
2026-05-08 08:37 41.35783 0.60880 26102 ft 439 kts 76°
2026-05-08 08:37 41.36619 0.64779 25674 ft 435 kts 76°
2026-05-08 08:37 41.37459 0.68650 25269 ft 431 kts 76°
2026-05-08 08:37 41.38274 0.72421 24851 ft 428 kts 76°
2026-05-08 08:38 41.39085 0.76217 24472 ft 424 kts 76°
2026-05-08 08:38 41.39893 0.79995 24076 ft 421 kts 76°
2026-05-08 08:38 41.40703 0.83762 23725 ft 417 kts 75°
2026-05-08 08:38 41.41488 0.87426 23323 ft 414 kts 76°
2026-05-08 08:39 41.42270 0.91121 22901 ft 411 kts 76°
2026-05-08 08:39 41.43044 0.94753 22415 ft 410 kts 75°
2026-05-08 08:39 41.43832 0.98432 21765 ft 413 kts 75°
2026-05-08 08:39 41.44617 1.02129 21146 ft 415 kts 75°
2026-05-08 08:40 41.45386 1.05813 20528 ft 417 kts 75°
2026-05-08 08:40 41.46175 1.09522 19965 ft 416 kts 75°
2026-05-08 08:40 41.46975 1.13259 19432 ft 416 kts 75°
2026-05-08 08:40 41.47736 1.16896 19304 ft 395 kts 75°
2026-05-08 08:41 41.48446 1.20306 19132 ft 375 kts 75°
2026-05-08 08:41 41.49152 1.23640 18665 ft 370 kts 75°
2026-05-08 08:41 41.49839 1.26913 18194 ft 366 kts 75°
2026-05-08 08:41 41.50504 1.30094 17666 ft 361 kts 75°
2026-05-08 08:42 41.51177 1.33307 17140 ft 357 kts 75°
2026-05-08 08:42 41.51834 1.36465 16613 ft 351 kts 75°
2026-05-08 08:42 41.52485 1.39578 16100 ft 344 kts 75°
2026-05-08 08:42 41.53119 1.42629 15590 ft 343 kts 75°
2026-05-08 08:43 41.53752 1.45682 15096 ft 335 kts 75°
2026-05-08 08:43 41.54368 1.48639 14615 ft 334 kts 75°
2026-05-08 08:43 41.54776 1.51644 14157 ft 322 kts 88°
2026-05-08 08:43 41.54740 1.54620 13633 ft 315 kts 94°
2026-05-08 08:44 41.54669 1.57471 13098 ft 309 kts 90°
2026-05-08 08:44 41.54772 1.60300 12879 ft 298 kts 87°
2026-05-08 08:44 41.54854 1.63111 12655 ft 306 kts 91°
2026-05-08 08:44 41.54799 1.65906 12353 ft 301 kts 93°
2026-05-08 08:45 41.54770 1.68704 12076 ft 300 kts 90°
2026-05-08 08:45 41.54844 1.71487 11805 ft 299 kts 89°
2026-05-08 08:45 41.54894 1.74254 11523 ft 296 kts 91°
2026-05-08 08:45 41.54863 1.76981 11237 ft 295 kts 92°
2026-05-08 08:46 41.54860 1.79694 10957 ft 287 kts 90°
2026-05-08 08:46 41.54919 1.82334 10694 ft 282 kts 90°
2026-05-08 08:46 41.54938 1.84923 10433 ft 281 kts 92°
2026-05-08 08:46 41.54911 1.87509 10167 ft 273 kts 91°
2026-05-08 08:47 41.54850 1.89977 9947 ft 264 kts 100°
2026-05-08 08:47 41.54490 1.92390 10026 ft 271 kts 104°
2026-05-08 08:47 41.54119 1.94797 10025 ft 261 kts 101°
2026-05-08 08:47 41.53854 1.97258 9991 ft 268 kts 99°
2026-05-08 08:48 41.53564 1.99644 9610 ft 255 kts 102°
2026-05-08 08:48 41.53199 2.01996 8746 ft 262 kts 103°
2026-05-08 08:48 41.52851 2.04362 8213 ft 256 kts 101°
2026-05-08 08:48 41.52576 2.06711 7560 ft 254 kts 100°
2026-05-08 08:49 41.52278 2.09003 7025 ft 251 kts 102°
2026-05-08 08:49 41.51965 2.11283 6417 ft 246 kts 95°
2026-05-08 08:49 41.52028 2.13551 6038 ft 235 kts 83°
2026-05-08 08:49 41.52219 2.15718 6046 ft 245 kts 88°
2026-05-08 08:50 41.52206 2.17971 5870 ft 235 kts 94°
2026-05-08 08:50 41.52153 2.20104 5324 ft 234 kts 89°
2026-05-08 08:50 41.52301 2.22255 5036 ft 221 kts 84°
2026-05-08 08:50 41.52405 2.24288 5026 ft 226 kts 98°
2026-05-08 08:51 41.51779 2.26106 5094 ft 220 kts 141°
2026-05-08 08:51 41.50410 2.27116 5151 ft 227 kts 159°
2026-05-08 08:51 41.48953 2.27847 5028 ft 223 kts 155°
2026-05-08 08:51 41.47610 2.28786 5013 ft 216 kts 149°
2026-05-08 08:52 41.46555 2.29653 4984 ft 215 kts 142°
2026-05-08 08:52 41.45682 2.31169 5058 ft 203 kts 103°
2026-05-08 08:52 41.45704 2.33053 5131 ft 200 kts 76°
2026-05-08 08:52 41.46263 2.34699 4699 ft 199 kts 63°
2026-05-08 08:53 41.46884 2.36384 4162 ft 201 kts 69°
2026-05-08 08:53 41.47382 2.38088 3953 ft 188 kts 70°
2026-05-08 08:53 41.47942 2.39728 4006 ft 202 kts 64°
2026-05-08 08:53 41.48566 2.41353 4006 ft 196 kts 66°
2026-05-08 08:54 41.49129 2.43034 3990 ft 196 kts 69°
2026-05-08 08:54 41.49644 2.44655 3987 ft 190 kts 68°
2026-05-08 08:54 41.50200 2.46230 4005 ft 192 kts 66°
2026-05-08 08:54 41.50765 2.47851 4003 ft 189 kts 68°
2026-05-08 08:55 41.51301 2.49468 4005 ft 191 kts 68°
2026-05-08 08:55 41.51844 2.51056 4000 ft 189 kts 66°
2026-05-08 08:55 41.52383 2.52672 4002 ft 189 kts 73°
2026-05-08 08:55 41.52395 2.54367 3995 ft 184 kts 115°
2026-05-08 08:56 41.51562 2.55575 4000 ft 182 kts 147°
2026-05-08 08:56 41.50425 2.56265 3982 ft 176 kts 158°
2026-05-08 08:56 41.49306 2.56907 3988 ft 172 kts 152°
2026-05-08 08:56 41.48289 2.57613 3913 ft 162 kts 154°
2026-05-08 08:57 41.47165 2.57800 3536 ft 167 kts 200°
2026-05-08 08:57 41.46367 2.56749 3144 ft 169 kts 256°
2026-05-08 08:57 41.46280 2.55237 2921 ft 164 kts 269°
2026-05-08 08:57 41.46126 2.53683 2660 ft 170 kts 248°
2026-05-08 08:58 41.45605 2.52318 2474 ft 165 kts 236°
2026-05-08 08:58 41.44986 2.51005 2447 ft 167 kts 236°
2026-05-08 08:58 41.44382 2.49663 2496 ft 170 kts 238°
2026-05-08 08:58 41.43837 2.48283 2559 ft 170 kts 242°
2026-05-08 08:59 41.43301 2.46864 2601 ft 171 kts 240°
2026-05-08 08:59 41.42724 2.45476 2660 ft 170 kts 237°
2026-05-08 08:59 41.42130 2.44114 2640 ft 172 kts 239°
2026-05-08 08:59 41.41614 2.42698 2610 ft 172 kts 246°
2026-05-08 09:00 41.41187 2.41076 2769 ft 200 kts 251°
2026-05-08 09:00 41.40763 2.39259 3072 ft 210 kts 251°
2026-05-08 09:00 41.40337 2.37459 3013 ft 200 kts 250°
2026-05-08 09:00 41.39827 2.35770 2909 ft 206 kts 242°
2026-05-08 09:01 41.39128 2.34127 2709 ft 202 kts 236°
2026-05-08 09:01 41.38331 2.32550 2317 ft 206 kts 234°
2026-05-08 09:01 41.37577 2.30918 1888 ft 210 kts 238°
2026-05-08 09:01 41.36906 2.29180 1675 ft 204 kts 243°
2026-05-08 09:02 41.36362 2.27538 1692 ft 188 kts 245°
2026-05-08 09:02 41.35875 2.25959 1628 ft 178 kts 246°
2026-05-08 09:02 41.35444 2.24491 1577 ft 160 kts 246°
2026-05-08 09:02 41.35017 2.23178 1524 ft 151 kts 243°
2026-05-08 09:03 41.34572 2.21934 1490 ft 148 kts 240°
2026-05-08 09:03 41.34104 2.20744 1359 ft 144 kts 239°
2026-05-08 09:03 41.33640 2.19557 1265 ft 142 kts 242°
2026-05-08 09:03 41.33239 2.18389 1182 ft 138 kts 245°
2026-05-08 09:04 41.32862 2.17180 1118 ft 142 kts 246°
2026-05-08 09:04 41.32608 2.16371 963 ft 142 kts 246°
2026-05-08 09:04 41.32214 2.15199 741 ft 138 kts 245°
2026-05-08 09:04 41.31808 2.14024 635 ft 141 kts 245°
2026-05-08 09:05 41.31396 2.12847 403 ft 139 kts 245°
2026-05-08 09:05 41.31005 2.11681 251 ft 139 kts 246°
2026-05-08 09:05 41.30617 2.10490 95 ft 140 kts 245°
2026-05-08 09:05 41.30217 2.09350 25 ft 120 kts 246°
2026-05-08 09:06 41.29968 2.08611 26 ft 39 kts 247°
2026-05-08 09:06 41.29925 2.08358 26 ft 25 kts 269°
2026-05-08 09:06 41.29938 2.08139 25 ft 15 kts 275°
2026-05-08 09:06 41.29971 2.08041 25 ft 11 kts 314°
2026-05-08 09:07 41.30033 2.07990 25 ft 10 kts 329°
2026-05-08 09:07 41.30107 2.07951 25 ft 11 kts 350°
2026-05-08 09:07 41.30180 2.07963 24 ft 10 kts 18°
2026-05-08 09:07 41.30211 2.07975 25 ft 2 kts 15°
2026-05-08 09:08 41.30212 2.07975 26 ft 0 kts 15°